Lexington Weather

Lexington, Massachusetts, USA

78°F
7/25/2024 12:39pm 
  • Lexington Conditions: Mostly cloudy
  • Temperature: 77.7°F / 25.4°CWarmer 1.1°F than last hour.
  • Dew Point: 72.1°FIncreased 0.3°Fsince last hour.
  • Relative Humidity: 83%Decreased 2.0% since last hour.
  • Wind: Wind from SW SW 1 mph, 10-min avg: 2 mph, gust: 6 mph
  • Barometer: 29.93 inFalling 0.02  inHg/hr Falling Slowly
  • Visibility: 10 miles
  • Rain Today: 0.00 in
  •   

Regional Weather Roundup
for Boston, MA

        
000
ASUS41 KBOX 192310
RWRBOX

REGIONAL WEATHER ROUNDUP
NATIONAL WEATHER SERVICE BOSTON/NORTON MA
700 PM EDT FRI JUL 19 2024

NOTE:  "FAIR" INDICATES FEW OR NO CLOUDS BELOW 12,000 FEET WITH NO 
SIGNIFICANT WEATHER AND/OR OBSTRUCTIONS TO VISIBILITY.

MAZALL-200000-
EASTERN MASSACHUSETTS
  
CITY           SKY/WX    TMP DP  RH WIND       PRES   REMARKS
BOSTON         MOSUNNY   74  58  57 SE9       30.06S                  
BEVERLY        SUNNY     73  57  57 SE7       30.06R                  
LAWRENCE       MOSUNNY   81  54  39 CALM      30.07R                  
BEDFORD        SUNNY     80  56  43 S6        30.04S                  
NORWOOD        SUNNY     82  62  50 W5        30.06R                  
MARSHFIELD     SUNNY     75  57  53 VRB5      30.07S                  
PLYMOUTH       SUNNY     77  60  55 SE6       30.08R                  
TAUNTON        PTSUNNY   80  62  54 VRB5      30.06R                  
NEW BEDFORD    SUNNY     77  63  61 SW9       30.06R                  
$$

MAZALL-200000-
CAPE COD AND THE ISLANDS
  
CITY           SKY/WX    TMP DP  RH WIND       PRES   REMARKS
FALMOUTH       SUNNY     75  61  60 S9        30.09S                  
HYANNIS        SUNNY     73  64  73 VRB6      30.08R                  
CHATHAM        SUNNY     73  62  68 SW6       30.09R                  
PROVINCETOWN   SUNNY     74  59  59 SW7       30.09R                  
NANTUCKET      SUNNY     70  63  78 S5        30.10R                  
MARTHAS VNYRD  SUNNY     74  64  71 S7        30.09R                  
$$
 
MAZALL-200000-
CENTRAL AND WESTERN MASSACHUSETTS
  
CITY           SKY/WX    TMP DP  RH WIND       PRES   REMARKS
WORCESTER      SUNNY     78  55  44 W7        30.10R                  
FITCHBURG      SUNNY     81  57  43 W7        30.07R                  
ORANGE           N/A     80  56  43 W5        30.09R                  
SPRINGFIELD    MOSUNNY   81  57  44 CALM      30.04R                  
WESTFIELD      MOSUNNY   82  56  40 W6        30.07R                  
NORTH ADAMS    SUNNY     77  55  46 VRB3      30.10R                  
PITTSFIELD     MOSUNNY   75  53  46 W5        30.11S                  
$$
 
RIZALL-200000-
RHODE ISLAND
  
CITY           SKY/WX    TMP DP  RH WIND       PRES   REMARKS
PROVIDENCE     MOSUNNY   79  57  46 W8        30.07R                  
NEWPORT        SUNNY     73  62  68 SW8       30.08R                  
BLOCK ISLAND   SUNNY     74  63  68 SW13        N/A                   
SMITHFIELD     SUNNY     76  64  66 CALM      30.09R                  
WESTERLY       SUNNY     77  62  59 SW8       30.08S                  
$$
 
CTZALL-200000-
CONNECTICUT
  
CITY           SKY/WX    TMP DP  RH WIND       PRES   REMARKS
BRADLEY INTL   MOSUNNY   83  57  41 W8        30.07R                  
HARTFORD       CLOUDY    81  59  47 SE5       30.06R                  
PLAINVILLE     CLEAR     80  56  42 NW3       30.07S                  
BRIDGEPORT     CLOUDY    81  58  45 SW6       30.08R                  
DANBURY        SUNNY     80  52  37 N3        30.11R                  
GROTON         SUNNY     76  64  66 SW8       30.08R                  
NEW HAVEN      SUNNY     80  62  54 SW6       30.08S                  
CHESTER        SUNNY     79  63  57 S6        30.10R                  
MERIDEN        SUNNY     80  57  45 CALM      30.07S                  
WILLIMANTIC    SUNNY     79  58  48 CALM      30.08R                  
OXFORD         SUNNY     76  56  49 NW3       30.12R                  
$$

MEZ002-015-021-024-NHZ003-005-008-011-012-014-VTZ005-008-200000-
NORTHERN NEW ENGLAND
  
CITY           SKY/WX    TMP DP  RH WIND       PRES   REMARKS
PORTLAND ME    PTSUNNY   75  53  46 S9        30.05R                  
BANGOR ME      MOSUNNY   80  56  43 CALM      30.01R                  
CONCORD NH     SUNNY     81  53  37 NW7       30.05S                  
MANCHESTER NH  MOSUNNY   84  51  31 NW6       30.04R                  
NASHUA NH      MOSUNNY   81  59  47 CALM      30.06R                  
PORTSMOUTH NH  MOSUNNY   77  57  49 S8        30.04R                  
JAFFREY NH     SUNNY     79  54  41 W5        30.10S                  
KEENE NH       SUNNY     79  54  41 NW5       30.07R                  
BURLINGTON VT  MOSUNNY   79  54  41 CALM      30.06S                  
MT. WASHINGTON PTSUNNY   48  46  93 W30         N/A                   
$$

NYZ052-076-200000-
EASTERN NEW YORK
  
CITY           SKY/WX    TMP DP  RH WIND       PRES   REMARKS
ALBANY         PTSUNNY   81  53  37 W6        30.08S                  
NEW YORK CITY  MOSUNNY   83  56  39 SE8G17    30.07R                  
$$
 
ANZALL-200000-
MARINE OBSERVATIONS
  
STATION/POSITION TIME  TEMP    WIND        PRES    VSBY  WAVE
                       AIR SEA DIR/SP/G                  HT/PER
                 (UTC) (F)     (DEG/KT/KT) (MB)    (MI)  (FT/S)
BOSTON BUOY      2240   67 63  170/  8/ 10 1018.3S
BUZZARDS BAY     2200   72     230/ 14/ 14 1018.4F
NANTUCKET SOUND  2250   73 77  170/  6/  8 1018.3R         1
MASS BAY-STELLWA 2104   69 66  150/  6/  8 1018.3F  1 7/8  2/ 8
ISLE OF SHOALS   2200   74     170/ 16/ 16 1016.7F
S OF BLOCK IS    2226      74                N/A           3/ 8
$$

......................KEY.........................
  SKY/WX - SKY CONDITION/PRESENT WEATHER
  TMP    - TEMPERATURE IN FAHRENHEIT
  DWPT   - DEWPOINT IN FAHRENHEIT
  RH     - RELATIVE HUMIDITY IN PERCENT
  WIND   - DIRECTION AND SPEED IN MPH
  PRES   - MEAN SEA LEVEL PRESSURE IN INCHES OF HG
  WCI    - WIND CHILL INDEX
  VSB    - VISIBILITY IN MILES
  HX     - HEAT INDEX
  TC     - TEMPERATURE IN CELSIUS
  VRB    - VARIABLE WIND DIRECTION
  N/A    - NOT AVAILABLE
  
      

Other recent Regional Weather Roundups

Thu Jul 25, 12:10pm EDT

Thu Jul 25, 11:10am EDT

Thu Jul 25, 10:10am EDT

Thu Jul 25, 9:10am EDT

Thu Jul 25, 8:10am EDT

Thu Jul 25, 7:10am EDT

Thu Jul 25, 6:10am EDT

Thu Jul 25, 5:10am EDT

Thu Jul 25, 4:10am EDT

Thu Jul 25, 3:10am EDT

Thu Jul 25, 2:10am EDT

Thu Jul 25, 1:10am EDT

Thu Jul 25, 12:10am EDT

Wed Jul 24, 11:10pm EDT

Wed Jul 24, 10:10pm EDT

Wed Jul 24, 9:10pm EDT

Wed Jul 24, 8:10pm EDT

Wed Jul 24, 7:10pm EDT

Wed Jul 24, 6:10pm EDT

Wed Jul 24, 5:10pm EDT

Wed Jul 24, 4:10pm EDT

Wed Jul 24, 3:10pm EDT

Wed Jul 24, 2:10pm EDT

Wed Jul 24, 1:10pm EDT

Wed Jul 24, 12:10pm EDT

Wed Jul 24, 11:10am EDT

Wed Jul 24, 10:10am EDT

Wed Jul 24, 9:10am EDT

Wed Jul 24, 8:10am EDT

Wed Jul 24, 7:10am EDT

Wed Jul 24, 6:10am EDT

Wed Jul 24, 5:10am EDT

Wed Jul 24, 4:10am EDT

Wed Jul 24, 3:10am EDT

Wed Jul 24, 2:10am EDT

Wed Jul 24, 1:10am EDT

Wed Jul 24, 12:10am EDT

Tue Jul 23, 11:10pm EDT

Tue Jul 23, 10:10pm EDT

Tue Jul 23, 9:10pm EDT

Tue Jul 23, 8:10pm EDT

Tue Jul 23, 7:10pm EDT

Tue Jul 23, 6:10pm EDT

Tue Jul 23, 5:10pm EDT

Tue Jul 23, 4:10pm EDT

Tue Jul 23, 3:10pm EDT

Tue Jul 23, 2:10pm EDT

Tue Jul 23, 1:10pm EDT

Tue Jul 23, 12:10pm EDT

Tue Jul 23, 11:10am EDT

Tue Jul 23, 10:10am EDT

Tue Jul 23, 10:10am EDT

Tue Jul 23, 9:10am EDT

Tue Jul 23, 8:10am EDT

Tue Jul 23, 7:10am EDT

Tue Jul 23, 6:10am EDT

Tue Jul 23, 5:10am EDT

Tue Jul 23, 4:10am EDT

Tue Jul 23, 3:10am EDT

Tue Jul 23, 2:10am EDT

Tue Jul 23, 1:10am EDT

Tue Jul 23, 12:10am EDT

Mon Jul 22, 11:10pm EDT

Mon Jul 22, 10:10pm EDT

Mon Jul 22, 9:10pm EDT

Mon Jul 22, 8:10pm EDT

Mon Jul 22, 7:10pm EDT

Mon Jul 22, 6:10pm EDT

Mon Jul 22, 5:10pm EDT

Mon Jul 22, 4:10pm EDT

Mon Jul 22, 3:10pm EDT

Mon Jul 22, 2:10pm EDT

Mon Jul 22, 1:10pm EDT

Mon Jul 22, 12:10pm EDT

Mon Jul 22, 11:10am EDT

Mon Jul 22, 10:10am EDT

Mon Jul 22, 9:10am EDT

Mon Jul 22, 8:10am EDT

Mon Jul 22, 7:10am EDT

Mon Jul 22, 6:10am EDT

Mon Jul 22, 5:10am EDT

Mon Jul 22, 4:10am EDT

Mon Jul 22, 3:10am EDT

Mon Jul 22, 2:10am EDT

Mon Jul 22, 1:10am EDT

Mon Jul 22, 12:10am EDT

Sun Jul 21, 11:10pm EDT

Sun Jul 21, 10:10pm EDT

Sun Jul 21, 9:10pm EDT

Sun Jul 21, 8:10pm EDT

Sun Jul 21, 7:10pm EDT

Sun Jul 21, 6:10pm EDT

Sun Jul 21, 5:10pm EDT

Sun Jul 21, 4:10pm EDT

Sun Jul 21, 3:10pm EDT

Sun Jul 21, 2:10pm EDT

Sun Jul 21, 1:10pm EDT

Sun Jul 21, 12:10pm EDT

Sun Jul 21, 11:10am EDT

Sun Jul 21, 10:10am EDT

Sun Jul 21, 9:10am EDT

Sun Jul 21, 8:10am EDT

Sun Jul 21, 7:10am EDT

Sun Jul 21, 6:10am EDT

Sun Jul 21, 5:10am EDT

Sun Jul 21, 4:10am EDT

Sun Jul 21, 3:10am EDT

Sun Jul 21, 2:10am EDT

Sun Jul 21, 1:10am EDT

Sun Jul 21, 12:10am EDT

Sat Jul 20, 11:10pm EDT

Sat Jul 20, 10:10pm EDT

Sat Jul 20, 9:10pm EDT

Sat Jul 20, 8:10pm EDT

Sat Jul 20, 7:10pm EDT

Sat Jul 20, 6:10pm EDT

Sat Jul 20, 5:10pm EDT

Sat Jul 20, 4:10pm EDT

Sat Jul 20, 3:10pm EDT

Sat Jul 20, 2:10pm EDT

Sat Jul 20, 1:10pm EDT

Sat Jul 20, 12:10pm EDT

Sat Jul 20, 11:10am EDT

Sat Jul 20, 10:10am EDT

Sat Jul 20, 9:10am EDT

Sat Jul 20, 8:10am EDT

Sat Jul 20, 7:10am EDT

Sat Jul 20, 6:10am EDT

Sat Jul 20, 5:10am EDT

Sat Jul 20, 4:10am EDT

Sat Jul 20, 3:10am EDT

Sat Jul 20, 2:10am EDT

Sat Jul 20, 1:10am EDT

Sat Jul 20, 12:10am EDT

Fri Jul 19, 11:10pm EDT

Fri Jul 19, 10:10pm EDT

Fri Jul 19, 9:10pm EDT

Fri Jul 19, 8:10pm EDT

Fri Jul 19, 6:10pm EDT

Fri Jul 19, 5:10pm EDT

Fri Jul 19, 4:10pm EDT

Fri Jul 19, 3:10pm EDT

Fri Jul 19, 2:10pm EDT

Fri Jul 19, 1:10pm EDT

Fri Jul 19, 12:10pm EDT

Fri Jul 19, 11:10am EDT

Fri Jul 19, 10:10am EDT

Fri Jul 19, 9:10am EDT

Fri Jul 19, 8:10am EDT

Fri Jul 19, 7:10am EDT

Fri Jul 19, 6:10am EDT

Fri Jul 19, 5:10am EDT

Fri Jul 19, 4:10am EDT

Fri Jul 19, 3:10am EDT

Fri Jul 19, 2:10am EDT

Fri Jul 19, 1:10am EDT

Fri Jul 19, 12:10am EDT

Thu Jul 18, 11:10pm EDT

Thu Jul 18, 10:10pm EDT

Thu Jul 18, 9:10pm EDT

Thu Jul 18, 8:10pm EDT

Thu Jul 18, 7:10pm EDT

Thu Jul 18, 6:10pm EDT

Thu Jul 18, 5:10pm EDT

Thu Jul 18, 4:10pm EDT

Thu Jul 18, 3:10pm EDT

Thu Jul 18, 2:10pm EDT

Thu Jul 18, 1:10pm EDT